Trail de l'Abbaye du Val - Dieu (Aubel) 01/05/2019 - 19,5 km
Mise à jour le : 03/05/2019 à 19:25
Classement définitif, aucune correction possible
Place Nom Prénom Dossard Temps Vitesse Allure Place. Cat. Catégorie
1 BRENNENRAEDTS CEDRIC 2156 1:18:21 14,93 4:01 1 Séniors
2 CHAMBERLAND JULIAN 2134 1:20:15 14,58 4:06 2 Séniors
3 VANWERSCH BERT 2073 1:21:05 14,43 4:09 1 Vétérans 2
4 LEMPEREUR BENJAMIN 2236 1:23:00 14,10 4:15 3 Séniors
5 PIRON JULIEN 2056 1:23:10 14,07 4:15 4 Séniors
6 CLAES FILIP 2205 1:23:17 14,05 4:16 1 Vétérans 1
7 HOCHSTENBACH FABIAN 2082 1:23:54 13,94 4:18 2 Vétérans 1
8 COURTREZ ALEXANDRE 2150 1:25:49 13,63 4:24 5 Séniors
9 HENRARD GUILLAUME 322 1:25:52 13,62 4:24 6 Séniors
10 DORTHU OLIVIER 2147 1:25:55 13,62 4:24 3 Vétérans 1
11 GOMEZ XAVIER 2112 1:25:59 13,60 4:24 4 Vétérans 1
12 TROUPIN CHARLES 2185 1:26:09 13,58 4:25 7 Séniors
13 BASTIN RODOLPHE 2250 1:27:41 13,34 4:29 5 Vétérans 1
14 LODEWIJCKX LUC 2219 1:28:38 13,20 4:32 2 Vétérans 2
15 VROMEN PIERRE-YVES 675 1:29:31 13,07 4:35 8 Séniors
16 HAGELSTEIN CHRISTIAN 2231 1:30:03 12,99 4:37 6 Vétérans 1
17 WEUSTEN CEDRIC 444 1:30:11 12,97 4:37 9 Séniors
18 D'AFFNAY JEAN-FRANÇOIS 2294 1:30:26 12,94 4:38 7 Vétérans 1
19 JACQUINET ERIC 2214 1:30:41 12,90 4:39 10 Séniors
20 VANHERF ARNAUD 2216 1:30:42 12,90 4:39 8 Vétérans 1
21 COOLEN GERARD 2121 1:31:02 12,85 4:40 9 Vétérans 1
22 SCHRAYEN HENRI 2136 1:31:15 12,82 4:40 11 Séniors
23 RENDERS ANDRE 2213 1:31:21 12,81 4:41 10 Vétérans 1
24 LODOMEZ OLIVIER 454 1:31:49 12,74 4:42 12 Séniors
25 VLIEGEN ASTRID 2083 1:32:53 12,60 4:45 1 Dames
26 TIMMERMAN DAVID 2257 1:32:56 12,59 4:45 13 Séniors
27 GEROMBOUX BERTRAND 363 1:32:59 12,58 4:46 14 Séniors
28 LYMANDT DENNIS 2044 1:33:37 12,50 4:48 11 Vétérans 1
29 LEJEUNE PHILIPPE 2102 1:34:14 12,42 4:49 3 Vétérans 2
30 SIMONIS ALAIN 287 1:34:17 12,41 4:50 4 Vétérans 2
31 COLLING JEAN-YVES 2159 1:34:30 12,38 4:50 15 Séniors
32 BAILLEUX MARIE 2001 1:34:44 12,35 4:51 2 Dames
33 CADET ALEXANDRE 2009 1:36:34 12,12 4:57 16 Séniors
34 BRIQUET NATHALIE 86 1:36:54 12,07 4:58 1 Ainées 2
35 HENNICO LAURENT 2131 1:37:06 12,05 4:58 17 Séniors
36 BRENNENRAEDTS FREDERIC 2215 1:37:21 12,02 4:59 18 Séniors
37 WARNIER NICOLE 2222 1:37:35 11,99 5:00 2 Ainées 2
38 RAJACIC DAVID 2230 1:37:38 11,98 5:00 19 Séniors
39 MARIQUE JEAN CHRISTOPHE 2207 1:37:55 11,95 5:01 12 Vétérans 1
40 GENEREITH VINCENT 2104 1:39:07 11,80 5:04 5 Vétérans 2
41 SLANGEN STEPHANE 2063 1:39:09 11,80 5:05 20 Séniors
42 LAHAYE ADRIEN 2149 1:39:22 11,77 5:05 21 Séniors
43 MOREL YANN 2182 1:39:29 11,76 5:06 22 Séniors
44 TEN HAAF JENNY 2064 1:39:33 11,75 5:06 3 Ainées 2
45 RITROVATO SYLVAIN 575 1:39:36 11,75 5:06 13 Vétérans 1
46 DELHEZ FLORENTIN 212 1:39:57 11,70 5:07 23 Séniors
47 FROIDMONT DANIELLE 263 1:40:05 11,69 5:07 4 Ainées 2
48 LEGROS GHISLAIN 379 1:40:05 11,69 5:07 14 Vétérans 1
49 ULRICI OLIVIER 2068 1:40:08 11,68 5:08 24 Séniors
50 LACROIX FRANCOIS 2164 1:40:24 11,65 5:08 25 Séniors
51 BRAGARD JEAN-FRANCOIS 110 1:40:27 11,65 5:09 26 Séniors
52 DEJARDIN FRED 119 1:40:50 11,60 5:10 15 Vétérans 1
53 DESSY SÉBASTIEN 2020 1:41:13 11,56 5:11 16 Vétérans 1
54 CADET SERGE 2010 1:41:28 11,53 5:12 17 Vétérans 1
55 LEMAIRE GUILLAUME 497 1:41:36 11,52 5:12 27 Séniors
56 AGUDO DENIS 2199 1:41:46 11,50 5:13 28 Séniors
57 CULOT GREGORY 2209 1:42:09 11,45 5:14 18 Vétérans 1
58 DEMARCHE CHRISTOPHE 2193 1:42:40 11,39 5:15 19 Vétérans 1
59 PRICKARTZ GERALD 2202 1:42:42 11,39 5:16 20 Vétérans 1
60 SWARTENBROUCKX VINCENT 2206 1:42:48 11,38 5:16 21 Vétérans 1
61 GODIN MICHAEL 2212 1:43:02 11,35 5:17 29 Séniors
62 FASSIN JEFF 277 1:43:03 11,35 5:17 30 Séniors
63 CORBUSIER NICOLAS 117 1:43:11 11,34 5:17 31 Séniors
64 OTTEN JOEL 2080 1:43:24 11,31 5:18 32 Séniors
65 LUCASSEN PHILIPPE 2197 1:43:29 11,31 5:18 6 Vétérans 2
66 BOONEN JEAN-MICHEL 2095 1:43:36 11,29 5:18 22 Vétérans 1
67 STEPHANY CHRISTIAN 2237 1:43:40 11,29 5:19 23 Vétérans 1
68 THONNARD SEVERINE 651 1:43:52 11,26 5:19 1 Ainées 1
69 ROSA HUGUES 565 1:43:52 11,26 5:19 24 Vétérans 1
70 DEVIRON BRIEUC 2133 1:43:56 11,26 5:19 33 Séniors
71 SCALCO FABIAN 2208 1:44:13 11,23 5:20 34 Séniors
72 JENNES DAMIEN 2160 1:44:29 11,20 5:21 35 Séniors
73 THONNARD MARIE HELENE 2081 1:44:40 11,18 5:22 5 Ainées 2
74 LOISEAU JEAN LUC 2195 1:44:42 11,17 5:22 7 Vétérans 2
75 PARTHOENS ROLAND 2192 1:44:44 11,17 5:22 8 Vétérans 2
76 TYCHON LAURENCE 2143 1:44:47 11,17 5:22 2 Ainées 1
77 DESSY VALERY 2021 1:44:50 11,16 5:22 25 Vétérans 1
78 ANDRIES NIGEL 2077 1:45:01 11,14 5:23 26 Vétérans 1
79 DE GRAAF ARNOLD 2261 1:45:03 11,14 5:23 9 Vétérans 2
80 FRATELLI ANTOINE 2198 1:45:23 11,10 5:24 10 Vétérans 2
81 MARLIER DAVID 2079 1:45:38 11,08 5:25 11 Vétérans 2
82 VAN TOMME YVES 2224 1:45:50 11,05 5:25 12 Vétérans 2
83 DODEMONT HERVE 2153 1:45:56 11,04 5:25 27 Vétérans 1
84 ROYEN CEDRIC 2111 1:45:58 11,04 5:26 36 Séniors
85 SLUYSMANS MARTIN 392 1:45:59 11,04 5:26 13 Vétérans 2
86 DEMOULIN ANNE-SOPHIE 251 1:46:18 11,01 5:27 3 Ainées 1
87 VAN DER PLAS MAARTEN 2070 1:46:42 10,96 5:28 37 Séniors
88 WILLEM NICOLAS 2162 1:46:44 10,96 5:28 38 Séniors
89 BOSCOLO MANUEL 72 1:46:54 10,94 5:28 28 Vétérans 1
90 THEYS SOPHIE 2196 1:46:58 10,94 5:29 3 Dames
91 HANNOTTE SYLVAIN 2106 1:46:59 10,94 5:29 39 Séniors
92 SCHNAKERS ARNAUD 595 1:47:03 10,93 5:29 40 Séniors
93 SCHWEYEN MAEVA 2252 1:47:05 10,92 5:29 4 Dames
94 FELIX BRUNO 2097 1:47:11 10,91 5:29 29 Vétérans 1
95 RAMAKERS LUDO 2058 1:47:21 10,90 5:30 14 Vétérans 2
96 SIMONS JOSIANE 2116 1:47:25 10,89 5:30 6 Ainées 2
97 BOLLAND MARC 2254 1:47:27 10,89 5:30 41 Séniors
98 MAILLY ALBERT 2295 1:47:28 10,89 5:30 42 Séniors
99 PIRENNE MARC 267 1:47:29 10,88 5:30 30 Vétérans 1
100 KEVELAER BÉATRICE 361 1:47:31 10,88 5:30 7 Ainées 2
101 ZAAR JOHN 2075 1:47:37 10,87 5:31 15 Vétérans 2
102 SAMMI SEBASTIEN 2210 1:47:55 10,84 5:32 31 Vétérans 1
103 LEGRAND CHRISTOPHE 204 1:47:58 10,84 5:32 43 Séniors
104 DINON DOMINIQUE 2091 1:48:01 10,83 5:32 16 Vétérans 2
105 DEJALLE LAURENT 2189 1:48:15 10,81 5:33 44 Séniors
106 ESPINOSA JENNIFER 2123 1:48:20 10,80 5:33 5 Dames
107 DENDAL DIDIER 2018 1:48:25 10,79 5:33 17 Vétérans 2
108 GERARD DENIS 2188 1:48:29 10,78 5:33 18 Vétérans 2
109 HUTSCHEMACKERS BERNARD 369 1:49:07 10,72 5:35 32 Vétérans 1
110 THILMANY NICOLAS 2157 1:49:11 10,72 5:35 45 Séniors
111 PEETERS THOMAS 2054 1:49:12 10,71 5:36 46 Séniors
112 LEVAUX NOEL 2255 1:49:20 10,70 5:36 19 Vétérans 2
113 LACROIX GILLES 2163 1:49:22 10,70 5:36 47 Séniors
114 HOCHSTENBACH DANIEL 2139 1:49:23 10,69 5:36 48 Séniors
115 PTAK DOMINIQUE 2262 1:49:25 10,69 5:36 20 Vétérans 2
116 DEROUWAUX MICHAEL 2161 1:49:29 10,69 5:36 49 Séniors
117 BERGMANS ANJA 2003 1:49:40 10,67 5:37 8 Ainées 2
118 FOGUENNE LUC 2029 1:49:43 10,66 5:37 21 Vétérans 2
119 DENOZ MAXIME 2158 1:50:04 10,63 5:38 33 Vétérans 1
120 COBBEN SYLVAIN 113 1:50:32 10,58 5:40 50 Séniors
121 BERGER MARINE 2132 1:50:47 10,56 5:40 6 Dames
122 HUPPERTS DICK 186 1:51:12 10,52 5:42 51 Séniors
123 MEERTENS FREDERIC 2203 1:51:21 10,51 5:42 34 Vétérans 1
124 DEWIT RAYMOND 2022 1:51:32 10,49 5:43 35 Vétérans 1
125 JOIRIS JOSEPH 2194 1:51:42 10,47 5:43 36 Vétérans 1
126 BROUX TOM 2008 1:51:44 10,47 5:43 52 Séniors
127 VAESSEN LAURENT 2069 1:51:45 10,47 5:43 53 Séniors
128 RADERMECKER ISABELLE 558 1:51:49 10,46 5:44 9 Ainées 2
129 TEN HAAF ROLAND 2065 1:52:18 10,42 5:45 22 Vétérans 2
130 TROISFONTAINES DELPHINE 664 1:52:23 10,41 5:45 4 Ainées 1
131 WILLEMSENS STEPHANE 2074 1:52:30 10,40 5:46 37 Vétérans 1
132 DEBATY JULIE 492 1:52:32 10,40 5:46 5 Ainées 1
133 BIEMAR DENIS 2100 1:52:35 10,39 5:46 54 Séniors
134 NYSSEN ANTOINE 2181 1:52:42 10,38 5:46 55 Séniors
135 URLINGS LAURENT 2084 1:52:47 10,37 5:47 56 Séniors
136 DELVENNE MARC 2017 1:53:02 10,35 5:47 23 Vétérans 2
137 LAVIGNE MICHEL 2122 1:53:04 10,35 5:47 24 Vétérans 2
138 MEYER JOCELYNE 226 1:53:05 10,35 5:47 6 Ainées 1
139 VOLLO ANTHONY 2269 1:53:07 10,34 5:48 57 Séniors
140 DALEM EDDY 2270 1:53:08 10,34 5:48 58 Séniors
141 CHEBIL RAMI 139 1:53:10 10,34 5:48 38 Vétérans 1
142 LEGRAND LUC 2232 1:53:12 10,34 5:48 25 Vétérans 2
143 LOUVIAUX CINDY 464 1:53:14 10,33 5:48 7 Ainées 1
144 SCHYNS EGIDE 2061 1:53:15 10,33 5:48 26 Vétérans 2
145 MAILLY HERVE 2048 1:53:19 10,32 5:48 59 Séniors
146 SICIM MUSTAFA 626 1:53:21 10,32 5:48 39 Vétérans 1
147 MARTENS ROBBY 2049 1:53:47 10,28 5:50 60 Séniors
148 PARISSE CHRISTIAN 252 1:53:52 10,27 5:50 40 Vétérans 1
149 COPPE SIGRID 116 1:53:59 10,26 5:50 10 Ainées 2
150 HERTAY MARC 2233 1:54:07 10,25 5:51 41 Vétérans 1
151 POREAU BERNARD 2235 1:54:09 10,25 5:51 27 Vétérans 2
152 XHONNEUX CÉDRIC 2140 1:54:10 10,25 5:51 61 Séniors
153 THIELEN NICOLAS 2066 1:54:19 10,23 5:51 42 Vétérans 1
154 SNACKERS FRANCIS 2103 1:54:22 10,23 5:51 1 Vétérans 3
155 MICHEL JEAN-MARC 2050 1:54:24 10,23 5:52 28 Vétérans 2
156 PHILIPPE AUDREY 693 1:54:48 10,19 5:53 8 Ainées 1
157 ZAAR DEAN 2076 1:54:50 10,19 5:53 62 Séniors
158 BEURSHENS SANDRA 2119 1:54:56 10,18 5:53 7 Dames
159 ROUHART DANIEL 2059 1:54:59 10,17 5:53 29 Vétérans 2
160 TOUSSAINT CHRISTOPHE 302 1:55:02 10,17 5:53 43 Vétérans 1
161 FRANSSEN JEAN-FRANCOIS 201 1:55:06 10,16 5:54 44 Vétérans 1
162 DELARBRE PATRICK 2146 1:56:12 10,07 5:57 45 Vétérans 1
163 NAERT HANS 2053 1:56:27 10,05 5:58 63 Séniors
164 LEROY MANON 2039 1:56:37 10,03 5:58 8 Dames
165 NYSSEN EMILIE 2220 1:57:21 9,97 6:01 9 Ainées 1
166 MONTE MAGALI 321 1:57:22 9,97 6:01 10 Ainées 1
167 PIRLOT BERNARD 541 1:57:25 9,96 6:01 64 Séniors
168 JOSSE NOEL 2092 1:57:27 9,96 6:01 2 Vétérans 3
169 SOHET CELINE 2130 1:57:32 9,95 6:01 9 Dames
170 HARDY MARC 297 1:57:46 9,93 6:02 46 Vétérans 1
171 PETERKENNE GAËTAN 255 1:57:50 9,93 6:02 65 Séniors
172 TEMPELS ALAIN 627 1:58:12 9,90 6:03 30 Vétérans 2
173 LEMOINE CAMILLE 206 1:58:37 9,86 6:04 10 Dames
174 DUMOULIN PHILIPPE 2026 1:58:50 9,84 6:05 31 Vétérans 2
175 HERMENS PHILIPPE 2246 1:59:01 9,83 6:06 66 Séniors
176 DODEMONT JONATHAN 2154 1:59:08 9,82 6:06 67 Séniors
177 WILLEM MARIE 2098 1:59:10 9,82 6:06 11 Dames
178 HURLET LUCIEN 351 1:59:23 9,80 6:07 3 Vétérans 3
179 HAUBRECHTS VALERIE 2034 1:59:30 9,79 6:07 11 Ainées 2
180 BONIVER FREDERIC 2005 1:59:36 9,78 6:08 47 Vétérans 1
181 XHONNEUX OLIVER 318 1:59:46 9,77 6:08 48 Vétérans 1
182 MEINGUET LAURENT 610 2:00:18 9,73 6:10 49 Vétérans 1
183 RENSON LAURENCE 2268 2:00:26 9,71 6:10 11 Ainées 1
184 LORQUET ISABELLE 2141 2:00:28 9,71 6:10 12 Ainées 1
185 SAVELKOUL AURELIE 2128 2:00:35 9,70 6:11 13 Ainées 1
186 GHAFGHAF MEHDI 2217 2:00:43 9,69 6:11 50 Vétérans 1
187 GATHY JULIEN 2124 2:00:52 9,68 6:11 68 Séniors
188 BARTELET LUC 2002 2:01:19 9,64 6:13 69 Séniors
189 HEUSLICH JOFFREY 2035 2:01:19 9,64 6:13 70 Séniors
190 ERNST ANDRE 327 2:02:00 9,59 6:15 32 Vétérans 2
191 DINON SANDRINE 437 2:02:05 9,58 6:15 14 Ainées 1
192 MASSON BERNARD 2078 2:02:17 9,57 6:16 4 Vétérans 3
193 LOLLI SAMUEL 2043 2:02:22 9,56 6:16 71 Séniors
194 OLIVERI AMERIGO 2204 2:02:24 9,56 6:16 5 Vétérans 3
195 LHUIRE JEAN-MARC 2040 2:02:31 9,55 6:16 51 Vétérans 1
196 LORQUET DELPHINE 476 2:02:37 9,54 6:17 12 Dames
197 VANDORMAEL KOEN 2099 2:02:48 9,53 6:17 33 Vétérans 2
198 SALERNO BIAGIO 2211 2:02:51 9,52 6:18 72 Séniors
199 LAMBERT CHANTAL 2221 2:02:53 9,52 6:18 12 Ainées 2
200 BARBIER ERIC 2267 2:03:06 9,50 6:18 34 Vétérans 2
201 MEUNIER DAVID 2138 2:04:02 9,43 6:21 52 Vétérans 1
202 JUDONG PHILIPPE 356 2:04:24 9,41 6:22 53 Vétérans 1
203 PIEDBOEUF BERTRAND 2155 2:04:41 9,38 6:23 73 Séniors
204 MORAINE THIBAULT 2117 2:04:41 9,38 6:23 74 Séniors
205 LAURENT THOMAS 2229 2:04:59 9,36 6:24 75 Séniors
206 POPULAIRE THIERRY 2108 2:05:13 9,34 6:25 54 Vétérans 1
207 BEUN MAGALI 2107 2:05:13 9,34 6:25 13 Ainées 2
208 DUBLET SERGE 231 2:05:15 9,34 6:25 6 Vétérans 3
209 PIRIN HELENE 2137 2:05:37 9,31 6:26 13 Dames
210 BASTIN VINCENT 2263 2:05:43 9,31 6:26 55 Vétérans 1
211 THOMSIN SARAH 2226 2:05:44 9,30 6:26 14 Dames
212 FETTWEIS THIERRY 281 2:05:52 9,29 6:27 7 Vétérans 3
213 MAURAGE RAPHAELLE 490 2:05:59 9,29 6:27 15 Ainées 1
214 CHOJNACKI OLIVIER 2011 2:06:52 9,22 6:30 35 Vétérans 2
215 MARECHAL SEBASTIEN 2247 2:07:09 9,20 6:31 56 Vétérans 1
216 HOUNJE FREDDY 2037 2:07:29 9,18 6:32 8 Vétérans 3
217 PENOY NOEMIE 2259 2:07:39 9,16 6:32 15 Dames
218 BURNICHON LEA 2260 2:07:43 9,16 6:32 16 Dames
219 DE LEO LETIZIA 134 2:08:08 9,13 6:34 16 Ainées 1
220 RUTTEN KELLY 2187 2:08:17 9,12 6:34 17 Dames
221 FETTWEIS GAËLLE 280 2:08:24 9,11 6:35 18 Dames
222 CAMUS BERTRAND 100 2:08:25 9,11 6:35 76 Séniors
223 COLIN JEAN-LOUIS 169 2:08:28 9,11 6:35 9 Vétérans 3
224 DUYSENS JEANNOT 262 2:08:31 9,10 6:35 10 Vétérans 3
225 LAUNOY MAXIME 202 2:08:31 9,10 6:35 77 Séniors
226 DARDENNE PHILIPPE 2201 2:08:48 9,08 6:36 36 Vétérans 2
227 JOVENAU CLAUDE 2200 2:08:48 9,08 6:36 14 Ainées 2
228 CRUTZEN FRANCOIS 2118 2:08:58 9,07 6:36 78 Séniors
229 DUBUISSON THOMAS 2025 2:09:11 9,06 6:37 79 Séniors
230 LAOUREUX QUENTIN 2038 2:09:17 9,05 6:37 80 Séniors
231 FRISÉE MARIETTE 217 2:09:19 9,05 6:37 1 Ainées 3
232 CUVELIER CATHERINE 2085 2:09:21 9,04 6:38 17 Ainées 1
233 GAIOTTI DIANA 2031 2:09:25 9,04 6:38 15 Ainées 2
234 VERJANS SARAH 2145 2:09:29 9,04 6:38 18 Ainées 1
235 DELWAIDE ANNE 209 2:09:30 9,03 6:38 2 Ainées 3
236 POLIS LUCIENNE 560 2:09:57 9,00 6:39 16 Ainées 2
237 LAHAYE SYLVIE 2120 2:10:29 8,97 6:41 19 Ainées 1
238 D'OULTREMONT CHRISTINE 2223 2:11:04 8,93 6:43 17 Ainées 2
239 HUBRICK NICOLAS 183 2:11:07 8,92 6:43 57 Vétérans 1
240 DONY PHILIPPE 421 2:11:12 8,92 6:43 58 Vétérans 1
241 CANISIUS THOMAS 2249 2:11:16 8,91 6:43 81 Séniors
242 WAGELMANS ARNAUD 2190 2:11:27 8,90 6:44 59 Vétérans 1
243 HORTEN JEAN MICHEL 2245 2:11:33 8,89 6:44 60 Vétérans 1
244 CRANSVELD CAROLINE 2096 2:11:38 8,89 6:45 20 Ainées 1
245 HEYNEN FREDERICK 2036 2:11:38 8,89 6:45 61 Vétérans 1
246 GOKA BENOIT 2240 2:11:38 8,89 6:45 62 Vétérans 1
247 BILGIC YACINE 2090 2:11:52 8,87 6:45 82 Séniors
248 BAGUETTE CAROLINE 2115 2:12:46 8,81 6:48 21 Ainées 1
249 BRUWIER PIERRE 2218 2:12:48 8,81 6:48 37 Vétérans 2
250 UEYENS LUC 2258 2:12:52 8,81 6:48 38 Vétérans 2
251 FAFCHAMPS CHRISTINE 2186 2:12:56 8,80 6:49 18 Ainées 2
252 MICHEL CARINE 2113 2:13:50 8,74 6:51 19 Ainées 2
253 DEMAZY STEVE 2114 2:13:50 8,74 6:51 63 Vétérans 1
254 DENOEL JEAN YVES 2151 2:13:55 8,74 6:52 64 Vétérans 1
255 MAILLY EMILIE 2045 2:13:58 8,73 6:52 19 Dames
256 MAILLY ROLAND 2046 2:14:04 8,73 6:52 11 Vétérans 3
257 LIESENS VINCIANE 2041 2:14:08 8,72 6:52 20 Ainées 2
258 LOGNOUL RAPHAEL 2042 2:15:14 8,65 6:56 39 Vétérans 2
259 DE CORTE NELE 2015 2:15:17 8,65 6:56 20 Dames
260 DI MORO BEATRICE 2086 2:15:55 8,61 6:58 21 Ainées 2
261 THOMAS PHILIPPE 2067 2:16:07 8,59 6:58 65 Vétérans 1
262 KENNIS DOMINIQUE 2148 2:16:09 8,59 6:58 40 Vétérans 2
263 DELHEZ NICOLAS 2089 2:16:13 8,59 6:59 83 Séniors
264 SPINEUX BERNARD 2251 2:16:24 8,58 6:59 12 Vétérans 3
265 HABETS AMÉLIE 2033 2:17:58 8,48 7:04 21 Dames
266 ENGELEN BENJAMIN 2127 2:17:58 8,48 7:04 84 Séniors
267 BREE JEAN PAUL 2007 2:19:20 8,40 7:08 66 Vétérans 1
268 VAN GESTEL KATRIEN 2071 2:19:57 8,36 7:10 22 Dames
269 GRETRY RÉGINE 2032 2:20:10 8,35 7:11 22 Ainées 2
270 LENAERTS MURIELLE 2183 2:20:12 8,34 7:11 23 Ainées 2
271 LEJEUNE ANDRE 2248 2:20:16 8,34 7:11 67 Vétérans 1
272 ANCION VALÉRIE 2000 2:20:59 8,30 7:13 22 Ainées 1
273 THONON MARIE-PIERRE 524 2:21:15 8,28 7:14 23 Dames
274 PIEDBOEUF ARMAND 260 2:21:45 8,25 7:16 85 Séniors
275 CONINGS PATRICK 2225 2:22:53 8,19 7:19 13 Vétérans 3
276 DEFAUWES BENOIT 2264 2:23:02 8,18 7:20 41 Vétérans 2
277 MEERTENS CHRISTELLE 2265 2:23:04 8,18 7:20 24 Ainées 2
278 DERICHS PATRICIA 2019 2:23:08 8,17 7:20 25 Ainées 2
279 GUILLAUME ANNE 2238 2:23:51 8,13 7:22 26 Ainées 2
280 WOUTERS NATHALIE 2239 2:23:53 8,13 7:22 27 Ainées 2
281 BOSCO VALERIE 2256 2:24:57 8,07 7:26 23 Ainées 1
282 FRISÉE CHARLOTTE 2030 2:24:58 8,07 7:26 0 F Sans Cat
283 DEMOL CINDY 342 2:25:05 8,06 7:26 24 Ainées 1
284 DELBEUCK AURORE 199 2:25:09 8,06 7:26 25 Ainées 1
285 IUGA IULIAN 2184 2:25:54 8,02 7:28 86 Séniors
286 VAN OVERSTRAETEN LOIC 2191 2:25:55 8,02 7:28 1 Espoirs Garçons
287 MICHIELS PHILIPPE 2051 2:27:35 7,93 7:34 42 Vétérans 2
288 FAGNOUL PHILIPPE 2028 2:28:07 7,90 7:35 68 Vétérans 1
289 VANDER AUWERA FABIEN 2072 2:28:11 7,89 7:35 69 Vétérans 1
290 ROEX TONY 2144 2:30:42 7,76 7:43 43 Vétérans 2
291 CURTZ ROBERT 2094 2:30:50 7,76 7:44 70 Vétérans 1
292 NI EWWHOF CHRIS 2266 2:31:33 7,72 7:46 3 Ainées 3
293 DELHASSE JULIE 2253 2:31:44 7,71 7:46 24 Dames
294 ERNOULD MARIE 439 2:33:21 7,63 7:51 25 Dames
295 CORDEWIN DELPHINE 2013 2:33:25 7,63 7:52 26 Dames
296 DEGIVE GAELLE 2016 2:33:27 7,62 7:52 27 Dames
297 DUBOIS ISABELLE 2024 2:34:18 7,58 7:54 26 Ainées 1
298 WYSOCKI NICOLAS 2126 2:34:32 7,57 7:55 87 Séniors
299 SCHMIDT ERIC 2060 2:34:37 7,57 7:55 0 H Sans Cat
300 PUTRONE LAURENCE 2057 2:34:40 7,56 7:55 27 Ainées 1
301 GERON CAROLINE 2227 2:42:40 7,19 8:20 28 Ainées 1
302 RIES MARJORIE 2228 2:42:46 7,19 8:20 29 Ainées 1
303 DALIMIER ISABELLE 2014 2:49:51 6,89 8:42 0 F Sans Cat
304 FAFCHAMPS ISABELLE 2241 3:01:54 6,43 9:19 30 Ainées 1
305 MAALS SEVERINE 2244 3:01:55 6,43 9:19 31 Ainées 1
306 PIRONNET SOPHIE 2242 3:01:57 6,43 9:19 32 Ainées 1
307 MAAG CHRISTELLE 2243 3:02:04 6,43 9:20 28 Ainées 2